Tracking 19827 objects as of 22-Aug-2019
HD Live streaming from Space Station
objects crossing your sky now

FENGYUN 1C DEB

Track FENGYUN 1C DEB now!
10-day predictions


NORAD ID: 31738
Int'l Code: 1999-025CEM
Perigee: 741.5 km
Apogee: 1,234.3 km
Inclination: 99.6 °
Period: 104.7 minutes
Semi major axis: 7358 km
RCS: 0.0147 m2 (small)
Launch date: May 10, 1999
Source: People's Republic of China (PRC)
Launch site: Taiyaun Space Center, China (TSC)

Note: This is SATELLITE DEBRIS
aabbcc
Your satellite tracking list
Your tracking list is empty




NASA's NSSDC Master Catalog

Two Line Element Set (TLE):
1 31738U 99025CEM 19233.33986636 -.00000030  00000-0  97680-5 0  9998
2 31738  99.5537 272.7516 0334813  46.3514 316.4884 13.75263341614243
Source of the keplerian elements: AFSPC